TimeCST,TemperatureF,Dew PointF,Humidity,Sea Level PressureIn,VisibilityMPH,Wind Direction,Wind SpeedMPH,Gust SpeedMPH,PrecipitationIn,Events,Conditions,WindDirDegrees,DateUTC
12:15 AM,18.5,11.8,75,30.33,10.0,SSW,4.6,-,N/A,,Scattered Clouds,210,2013-01-15 06:15:00
12:35 AM,18.7,12.0,75,30.33,10.0,SW,3.5,-,N/A,,Scattered Clouds,220,2013-01-15 06:35:00
12:55 AM,19.2,12.2,74,30.33,10.0,SW,4.6,-,N/A,,Clear,220,2013-01-15 06:55:00
1:15 AM,18.9,12.2,75,30.33,10.0,SW,5.8,-,N/A,,Clear,220,2013-01-15 07:15:00
1:35 AM,18.9,12.0,75,30.32,10.0,SSW,3.5,-,N/A,,Clear,200,2013-01-15 07:35:00
1:55 AM,17.2,11.3,78,30.32,10.0,Calm,Calm,-,N/A,,Clear,0,2013-01-15 07:55:00
2:15 AM,17.1,11.1,77,30.32,10.0,Calm,Calm,-,N/A,,Clear,0,2013-01-15 08:15:00
2:35 AM,16.7,11.3,79,30.31,10.0,Calm,Calm,-,N/A,,Scattered Clouds,0,2013-01-15 08:35:00
2:55 AM,15.1,10.9,84,30.32,10.0,Calm,Calm,-,N/A,,Scattered Clouds,0,2013-01-15 08:55:00
3:15 AM,16.9,10.8,77,30.31,10.0,Calm,Calm,-,N/A,,Clear,0,2013-01-15 09:15:00
3:35 AM,15.4,10.8,82,30.31,10.0,Calm,Calm,-,N/A,,Clear,0,2013-01-15 09:35:00
3:55 AM,16.7,11.5,80,30.30,10.0,Calm,Calm,-,N/A,,Clear,0,2013-01-15 09:55:00
4:55 AM,12.7,9.9,88,30.29,10.0,Calm,Calm,-,N/A,,Clear,0,2013-01-15 10:55:00
5:15 AM,12.9,10.8,91,30.28,10.0,SSE,3.5,-,N/A,,Clear,160,2013-01-15 11:15:00
5:35 AM,12.2,9.7,90,30.28,10.0,Calm,Calm,-,N/A,,Clear,0,2013-01-15 11:35:00
5:55 AM,14.5,10.9,86,30.28,10.0,Calm,Calm,-,N/A,,Clear,0,2013-01-15 11:55:00
6:15 AM,11.3,8.1,87,30.28,10.0,Calm,Calm,-,N/A,,Clear,0,2013-01-15 12:15:00
6:35 AM,13.6,10.4,87,30.28,10.0,Calm,Calm,-,N/A,,Clear,0,2013-01-15 12:35:00
6:55 AM,11.3,8.8,90,30.28,10.0,Calm,Calm,-,N/A,,Clear,0,2013-01-15 12:55:00
7:15 AM,11.7,9.1,90,30.28,10.0,Calm,Calm,-,N/A,,Clear,0,2013-01-15 13:15:00
7:35 AM,11.8,9.3,90,30.28,10.0,South,4.6,-,N/A,,Clear,180,2013-01-15 13:35:00
7:55 AM,12.9,10.4,90,30.29,10.0,ESE,3.5,-,N/A,,Clear,120,2013-01-15 13:55:00
8:15 AM,14.4,10.6,85,30.29,10.0,Calm,Calm,-,N/A,,Scattered Clouds,0,2013-01-15 14:15:00
8:35 AM,15.8,10.9,81,30.29,10.0,SE,3.5,-,N/A,,Clear,130,2013-01-15 14:35:00
8:55 AM,18.0,12.7,80,30.29,10.0,South,4.6,-,N/A,,Clear,170,2013-01-15 14:55:00
9:15 AM,19.9,13.6,77,30.28,10.0,South,3.5,-,N/A,,Clear,180,2013-01-15 15:15:00
9:35 AM,21.0,13.8,74,30.28,10.0,South,4.6,-,N/A,,Clear,190,2013-01-15 15:35:00
9:55 AM,23.0,14.4,70,30.28,10.0,South,5.8,-,N/A,,Clear,190,2013-01-15 15:55:00
10:15 AM,23.9,14.5,67,30.27,10.0,South,9.2,-,N/A,,Clear,190,2013-01-15 16:15:00
10:35 AM,25.5,15.1,65,30.26,10.0,South,9.2,-,N/A,,Clear,190,2013-01-15 16:35:00
10:55 AM,26.1,15.4,64,30.26,10.0,SSW,10.4,16.1,N/A,,Clear,200,2013-01-15 16:55:00
11:15 AM,27.0,16.2,64,30.26,10.0,SSW,9.2,-,N/A,,Clear,210,2013-01-15 17:15:00
11:35 AM,28.2,17.1,63,30.25,10.0,SSW,11.5,-,N/A,,Clear,200,2013-01-15 17:35:00
11:55 AM,30.0,17.1,59,30.23,10.0,SSW,10.4,-,N/A,,Clear,200,2013-01-15 17:55:00
12:15 PM,30.2,17.4,59,30.21,10.0,South,10.4,-,N/A,,Clear,180,2013-01-15 18:15:00
12:35 PM,31.5,18.5,59,30.20,10.0,SSW,9.2,-,N/A,,Clear,200,2013-01-15 18:35:00
12:55 PM,32.0,18.7,58,30.19,10.0,South,12.7,-,N/A,,Clear,190,2013-01-15 18:55:00
1:15 PM,32.2,19.6,60,30.19,10.0,SSW,9.2,-,N/A,,Clear,200,2013-01-15 19:15:00
1:35 PM,32.4,20.3,61,30.18,10.0,SSW,10.4,-,N/A,,Clear,200,2013-01-15 19:35:00
1:55 PM,33.6,21.2,60,30.17,10.0,SSW,9.2,-,N/A,,Clear,210,2013-01-15 19:55:00
2:15 PM,33.4,21.4,61,30.16,10.0,SSW,12.7,-,N/A,,Clear,210,2013-01-15 20:15:00
2:35 PM,34.0,22.1,62,30.16,10.0,South,12.7,16.1,N/A,,Clear,190,2013-01-15 20:35:00
2:55 PM,33.8,21.7,61,30.16,10.0,SSW,12.7,-,N/A,,Clear,200,2013-01-15 20:55:00
3:15 PM,34.0,22.1,62,30.15,10.0,SSW,10.4,-,N/A,,Clear,210,2013-01-15 21:15:00
3:35 PM,34.0,21.9,61,30.15,10.0,South,15.0,-,N/A,,Clear,190,2013-01-15 21:35:00
3:55 PM,33.8,21.7,61,30.14,10.0,South,11.5,17.3,N/A,,Clear,190,2013-01-15 21:55:00
4:15 PM,33.8,21.7,61,30.13,10.0,South,11.5,18.4,N/A,,Clear,180,2013-01-15 22:15:00
4:55 PM,32.2,21.7,65,30.13,10.0,South,8.1,-,N/A,,Clear,190,2013-01-15 22:55:00
5:15 PM,32.0,22.1,67,30.14,10.0,SSW,11.5,-,N/A,,Clear,200,2013-01-15 23:15:00
5:35 PM,31.1,22.1,69,30.13,10.0,South,9.2,-,N/A,,Clear,190,2013-01-15 23:35:00
5:55 PM,30.6,22.3,71,30.13,10.0,South,9.2,-,N/A,,Clear,190,2013-01-15 23:55:00
6:15 PM,29.8,22.1,73,30.13,10.0,SSW,8.1,-,N/A,,Clear,200,2013-01-16 00:15:00
6:35 PM,29.3,22.1,75,30.13,10.0,SSW,8.1,-,N/A,,Clear,210,2013-01-16 00:35:00
6:55 PM,28.2,21.7,77,30.12,10.0,SSW,8.1,-,N/A,,Clear,200,2013-01-16 00:55:00
7:15 PM,28.0,21.9,78,30.11,10.0,SSW,8.1,-,N/A,,Clear,200,2013-01-16 01:15:00
7:35 PM,27.7,21.7,78,30.11,10.0,SSW,6.9,-,N/A,,Clear,210,2013-01-16 01:35:00
7:55 PM,27.0,21.4,79,30.11,10.0,SSW,5.8,-,N/A,,Clear,210,2013-01-16 01:55:00
8:15 PM,26.4,21.2,81,30.09,10.0,SSW,8.1,-,N/A,,Clear,200,2013-01-16 02:15:00
8:35 PM,26.1,21.0,81,30.08,10.0,SSW,6.9,-,N/A,,Clear,210,2013-01-16 02:35:00
8:55 PM,25.7,20.8,82,30.08,10.0,SSW,6.9,-,N/A,,Clear,210,2013-01-16 02:55:00
9:15 PM,24.6,20.3,84,30.08,10.0,SSW,6.9,-,N/A,,Clear,200,2013-01-16 03:15:00
9:35 PM,24.4,20.1,84,30.06,10.0,South,8.1,-,N/A,,Clear,190,2013-01-16 03:35:00
9:55 PM,24.3,19.9,84,30.05,10.0,South,8.1,-,N/A,,Clear,190,2013-01-16 03:55:00
10:15 PM,24.4,19.6,82,30.04,10.0,South,8.1,-,N/A,,Clear,190,2013-01-16 04:15:00
10:35 PM,24.3,19.4,82,30.03,10.0,South,9.2,-,N/A,,Clear,190,2013-01-16 04:35:00
10:55 PM,24.3,19.4,82,30.04,10.0,SSW,12.7,-,N/A,,Clear,200,2013-01-16 04:55:00
11:15 PM,23.5,19.0,83,30.03,10.0,SSW,11.5,-,N/A,,Clear,200,2013-01-16 05:15:00
11:35 PM,22.8,18.7,84,30.02,10.0,South,9.2,-,N/A,,Clear,190,2013-01-16 05:35:00